Location: Cluj-Napoca
(46.7712°N, 23.6236°E)
Time: 18:08:05
(UTC+03:00)

ISS - Pass Details

Date: 29 May 2020
Orbit: 417 x 420 km, 51.6° (Epoch: 26 May)

Event Time Altitude Azimuth Distance (km) Brightness Sun altitude
Rises 21:47:03 0° 295° (WNW) 2,367 1.9 -5.9°
Reaches altitude 10° 21:49:11 10° 299° (WNW) 1,502 0.7 -6.2°
Maximum altitude 21:52:31 59° 20° (NNE) 490 -3.3 -6.6°
Drops below altitude 10° 21:55:51 10° 101° (E) 1,498 -1.5 -7.1°
Enters shadow 21:56:29 - 103° (ESE) 1,757 -1.1 -7.1°
